星链-34985 (STARLINK-34985)

导读

STARLINK-34985是美国SpaceX公司星链(Starlink)项目中的一颗低轨互联网卫星,于2025年8月30日发射入轨。作为星链巨型星座的一员,它运行在近地轨道,旨在为全球偏远、网络基础设施匮乏的地区提供低延迟、高速的宽带互联网服务,助力缩小数字鸿沟。星链项目规划总计部署超4万颗卫星,该卫星是星座组网扩容的重要组成部分,进一步推动了全球卫星互联网覆盖能力的提升。

Basic Information
目录编号:
65379
目录名称:
STARLINK-34985
国际标识:
2025-191A
轨道中心:
EARTH
卫星名称:
星链-34985
卫星全名:
星链-34985 (STARLINK-34985)
卫星状态:
在轨 (已飞行381 天)
发射日期:
2025-08-30 UTC
国别 :
美国 (US)
星等 :
--
This satellite is enrolled in the Space Conjunction Data Service (SCDS) and the current flight risk assessment level is: No High Risk
Orbit Information
数据来源 国际轨道数据
星历时间: 2026-09-15T06:11:07+0800
7小时前
查看轨道信息
半长轴: 6843.636km
偏心率: 0.0002035
轨道倾角: 97.284°
近地点辐角 90.848°
升交点赤经 124.018°
平近点角 269.300°
近地点: 464.106km
远地点: 466.892km
周期: 93.905分钟
每日圈数: 15.3346
Detailed Information
固有亮度:
5
最大亮度:
2.5
卫星平台:
Starlink V1.0
覆盖范围:
全球
运营商:
太空探索技术公司
运营商所在国:
美国
制造商(研发单位):
太空探索技术公司
制造商所在国:
美国
使用方式:
暂无
Satellite Introduction
Starlink 计划是 SpaceX 推出的全球卫星互联网项目,通过发射低轨道卫星,为全球尤其是偏远地区提供高速、低延迟的互联网服务。自 2019 年起,Starlink 已部署数千颗卫星,旨在缩小全球数字鸿沟,推动互联网普及。该项目还为军事、航空等行业提供通信支持,带来广泛经济效益。
2D Orbit Map
3D Orbit Map
Orbit Altitude Analysis Chart
Orbit Inclination Analysis Chart
Orbit Comprehensive Analysis Chart
View Comprehensive Chart
Conjunction Data List
Event ID Objects TCA Miss Dist (km) Collision Risk Probability Collision Risk Index (CRI) Action
CDM_260917-144705-308106-537921
2026-09-17T
14:47:59+0000
0.695 km
远距离
5.051361E-5 中风险 0.69
CDM_260917-131405-308106-537921
2026-09-17T
13:14:01+0000
2.033 km
极远距离
1.654764E-6 低风险 0.39
CDM_260915-111605-179106-537923
2026-09-15T
11:16:12+0000
2.453 km
极远距离
1.471356E-6 低风险 0.38
CDM_260915-175905-766906-537922
2026-09-15T
17:59:18+0000
2.826 km
极远距离
1.193147E-6 低风险 0.37
Miss Distance Evolution Trend with All Objects Subscribe to Flight Safety Assessment
Collision Probability Evolution Trend with All Objects Subscribe to Flight Safety Assessment